カタログに戻る

STARLINK-31407

運用中通信VLEO
NORAD 59250·PAYLOAD·🇺🇸 United States

打ち上げ Mar 16, 2024 から Cape Canaveral Space Force Station

Loading…

次のパス (今後24時間)

TLE

最新Source: CelesTrak SupGP

元期: Sep 15, 2026, 02:42 UTC

1 59250C 24049V   26258.11298611  .00065321  00000+0  23660-2 0  2585
2 59250  42.9996 142.5426 0001427 278.4292 155.3159 15.27545108    12

AllMySatでSTARLINK-31407をリアルタイム追跡

Download on the App Store